Selinsgrove, PA

2:56 AM EST on December 09, 2019 (GMT -0500)
Penn Valley

Weather History for KSEG - October, 2019

Change the Weather History Date:

Friday, October 25, 2019

  Actual Average (WUND) Record (WUND)
Temperature  
Mean Temperature 49 °F -  
Max Temperature 62 °F - - (-1)
Min Temperature 36 °F - - (-1)
Degree Days  
Heating Degree Days 16    
Moisture  
Dew Point 42 °F    
Average Humidity 82    
Maximum Humidity 97    
Minimum Humidity 52    
Precipitation  
Precipitation 0.00 in - - ()
Sea Level Pressure  
Sea Level Pressure 30.26 in    
Wind  
Wind Speed 1 mph (East)    
Max Wind Speed 5 mph    
Max Gust Speed -    
Visibility 10 miles    
Events      
Averages and records for this station are not official NWS values.
T = Trace of Precipitation, MM = Missing Value Source: NWS Daily Summary

Daily Weather History Graph

Daily Weather History Graph

Search for Another Location

Airport or City:

Astronomy

Oct. 25, 2019 Rise Set
Actual Time 7:29 AM EDT 6:12 PM EDT
Civil Twilight 7:01 AM EDT 6:40 PM EDT
Nautical Twilight 6:29 AM EDT 7:12 PM EDT
Astronomical Twilight 5:57 AM EDT 7:44 PM EDT
Moon 4:07 AM EDT (10/25) 5:15 PM EDT (10/25)
Length of Visible Light 11h 39m
Length of Day
10h 43m
Waning Crescent, 9% of the Moon is Illuminated
Oct 25
Waning Crescent
Oct 27
New
Nov 4
First Quarter
Nov 12
Full
Nov 19
Last Quarter

Hourly Weather History & Observations

Time (EDT) Temp. Windchill Dew Point Humidity Pressure Visibility Wind Dir Wind Speed Gust Speed Precip Events Conditions
12:53 AM 39.9 °F - 39.0 °F 97% 30.29 in 10.0 mi Calm Calm - N/A   Clear
1:53 AM 39.9 °F - 37.9 °F 93% 30.29 in 10.0 mi Calm Calm - N/A   Clear
2:53 AM 37.9 °F - 36.0 °F 93% 30.29 in 10.0 mi Calm Calm - N/A   Clear
3:53 AM 37.0 °F - 36.0 °F 96% 30.29 in 10.0 mi Calm Calm - N/A   Clear
4:53 AM 37.0 °F - 35.1 °F 93% 30.29 in 10.0 mi Calm Calm - N/A   Clear
5:53 AM 36.0 °F 33.3 °F 35.1 °F 97% 30.30 in 10.0 mi NNW 3.5 mph - N/A   Clear
6:53 AM 36.0 °F - 35.1 °F 97% 30.30 in 10.0 mi Calm Calm - N/A   Clear
7:53 AM 37.0 °F - 36.0 °F 96% 30.32 in 8.0 mi Calm Calm - N/A   Clear
8:53 AM 41.0 °F - 39.0 °F 93% 30.32 in 10.0 mi Calm Calm - N/A   Clear
9:53 AM 45.0 °F - 42.1 °F 90% 30.32 in 10.0 mi Calm Calm - N/A   Clear
10:18 AM 46.0 °F - 42.1 °F 86% 30.31 in 7.0 mi Calm Calm - N/A   Scattered Clouds
10:53 AM 48.9 °F - 42.1 °F 77% 30.31 in 10.0 mi Calm Calm - N/A   Clear
11:53 AM 53.1 °F - 44.1 °F 71% 30.29 in 10.0 mi Calm Calm - N/A   Clear
12:53 PM 57.0 °F - 45.0 °F 64% 30.27 in 10.0 mi Variable 3.5 mph - N/A   Clear
1:53 PM 59.0 °F - 45.0 °F 60% 30.24 in 9.0 mi ESE 3.5 mph - N/A   Clear
2:53 PM 61.0 °F - 45.0 °F 56% 30.19 in 10.0 mi Calm Calm - N/A   Partly Cloudy
3:53 PM 62.1 °F - 45.0 °F 53% 30.20 in 10.0 mi SE 4.6 mph - N/A   Scattered Clouds
4:53 PM 62.1 °F - 44.1 °F 52% 30.19 in 10.0 mi Calm Calm - N/A   Partly Cloudy
5:53 PM 57.9 °F - 45.0 °F 62% 30.18 in 10.0 mi South 3.5 mph - N/A   Clear
6:53 PM 53.1 °F - 48.9 °F 86% 30.19 in 10.0 mi Calm Calm - N/A   Clear
7:53 PM 52.0 °F - 48.0 °F 86% 30.19 in 10.0 mi Calm Calm - N/A   Clear
8:53 PM 52.0 °F - 46.9 °F 83% 30.21 in 10.0 mi North 4.6 mph - N/A   Scattered Clouds
9:53 PM 51.1 °F - 46.9 °F 86% 30.21 in 10.0 mi Calm Calm - N/A   Clear
10:53 PM 50.0 °F - 48.0 °F 93% 30.22 in 10.0 mi Calm Calm - N/A   Mostly Cloudy
11:53 PM 48.9 °F - 46.9 °F 93% 30.22 in 10.0 mi Calm Calm - N/A   Overcast